Location: �terpigny
(49.8910°N, 2.9249°E)
Time: 08:31:09
(UTC+00:00)

Cosmos 2360 Rocket - Pass Details

Date: 24 October 2021
Orbit: 832 x 846 km, 71.0° (Epoch: 01 December)

Event Time Altitude Azimuth Distance (km) Brightness Sun altitude
Rises 18:14:02 0° 186° (S) 3,376 5.4 -15.8°
Reaches altitude 10° 18:16:32 10° 180° (S) 2,448 4.6 -16.2°
Maximum altitude 18:21:51 45° 110° (ESE) 1,131 2.4 -17.1°
Enters shadow 18:26:14 15° 42° (NE) 2,121 3.9 -17.8°
